SCO26TU EGPF-EGLC

Flight info

Callsign SCO26TU
Flight time 1h 10m
Altitude 19000
Route LUSIV L612 HON
Aircraft AT76/M-SDFGIRY/S

Departure

Time 2026-05-06 00:25
Airport Glasgow Airport (EGPF)

Arrival

Time 2026-05-06 01:36
Airport London City Airport (EGLC)
Time Latitude Longitude Altitude Speed Heading
2026-05-06 00:25 55.91908 -4.34603 2629 ft 209 kts 49°
2026-05-06 00:25 55.92909 -4.32694 3168 ft 208 kts 53°
2026-05-06 00:25 55.93343 -4.30326 3701 ft 205 kts 93°
2026-05-06 00:26 55.93308 -4.27842 4214 ft 201 kts 77°
2026-05-06 00:26 55.93709 -4.25455 4746 ft 202 kts 75°
2026-05-06 00:26 55.93844 -4.22977 5272 ft 204 kts 103°
2026-05-06 00:26 55.93039 -4.20903 5799 ft 211 kts 146°
2026-05-06 00:27 55.91643 -4.20226 6338 ft 211 kts 183°
2026-05-06 00:27 55.90177 -4.20428 6844 ft 211 kts 185°
2026-05-06 00:27 55.88738 -4.19933 7347 ft 213 kts 164°
2026-05-06 00:27 55.87303 -4.19163 7859 ft 217 kts 166°
2026-05-06 00:28 55.85818 -4.18551 8385 ft 221 kts 170°
2026-05-06 00:28 55.84297 -4.18085 8914 ft 223 kts 172°
2026-05-06 00:28 55.82757 -4.17668 9453 ft 225 kts 173°
2026-05-06 00:28 55.81205 -4.17254 10000 ft 226 kts 173°
2026-05-06 00:29 55.79642 -4.16821 10502 ft 228 kts 172°
2026-05-06 00:29 55.78097 -4.16363 10983 ft 229 kts 172°
2026-05-06 00:29 55.76525 -4.15888 11486 ft 229 kts 172°
2026-05-06 00:29 55.74953 -4.15412 12000 ft 230 kts 172°
2026-05-06 00:30 55.73375 -4.14930 12524 ft 230 kts 172°
2026-05-06 00:30 55.71802 -4.14447 13050 ft 229 kts 173°
2026-05-06 00:30 55.70229 -4.13974 13585 ft 229 kts 173°
2026-05-06 00:30 55.68658 -4.13501 14107 ft 229 kts 173°
2026-05-06 00:31 55.67095 -4.13027 14591 ft 228 kts 173°
2026-05-06 00:31 55.65536 -4.12547 15084 ft 227 kts 174°
2026-05-06 00:31 55.63990 -4.12059 15590 ft 225 kts 173°
2026-05-06 00:31 55.62447 -4.11564 16026 ft 227 kts 173°
2026-05-06 00:32 55.60882 -4.11061 16417 ft 230 kts 174°
2026-05-06 00:32 55.59297 -4.10575 16816 ft 233 kts 174°
2026-05-06 00:32 55.57695 -4.10088 17209 ft 234 kts 174°
2026-05-06 00:32 55.56086 -4.09600 17610 ft 235 kts 175°
2026-05-06 00:33 55.54473 -4.09112 18023 ft 235 kts 175°
2026-05-06 00:33 55.52863 -4.08627 18428 ft 234 kts 175°
2026-05-06 00:33 55.51258 -4.08150 18785 ft 234 kts 175°
2026-05-06 00:33 55.49615 -4.07653 18888 ft 245 kts 173°
2026-05-06 00:34 55.47987 -4.06544 18935 ft 260 kts 155°
2026-05-06 00:34 55.46394 -4.04877 18953 ft 271 kts 151°
2026-05-06 00:34 55.44775 -4.03088 18966 ft 279 kts 151°
2026-05-06 00:34 55.43094 -4.01306 18964 ft 285 kts 153°
2026-05-06 00:35 55.41342 -3.99591 18971 ft 290 kts 155°
2026-05-06 00:35 55.39547 -3.97910 18972 ft 294 kts 155°
2026-05-06 00:35 55.37729 -3.96206 18967 ft 297 kts 155°
2026-05-06 00:35 55.35902 -3.94471 18971 ft 300 kts 154°
2026-05-06 00:36 55.34064 -3.92704 18969 ft 302 kts 154°
2026-05-06 00:36 55.32248 -3.90947 18978 ft 303 kts 154°
2026-05-06 00:36 55.30399 -3.89157 18973 ft 304 kts 154°
2026-05-06 00:36 55.28544 -3.87361 18974 ft 305 kts 154°
2026-05-06 00:37 55.26685 -3.85577 18973 ft 305 kts 154°
2026-05-06 00:37 55.24820 -3.83796 18970 ft 305 kts 154°
2026-05-06 00:37 55.22953 -3.82018 18974 ft 306 kts 154°
2026-05-06 00:37 55.21082 -3.80231 18973 ft 306 kts 154°
2026-05-06 00:38 55.19217 -3.78446 18969 ft 306 kts 154°
2026-05-06 00:38 55.17349 -3.76655 18971 ft 306 kts 154°
2026-05-06 00:38 55.15479 -3.74866 18983 ft 306 kts 154°
2026-05-06 00:38 55.13608 -3.73082 18972 ft 307 kts 154°
2026-05-06 00:39 55.11732 -3.71297 18963 ft 307 kts 154°
2026-05-06 00:39 55.09856 -3.69515 18971 ft 307 kts 154°
2026-05-06 00:39 55.07978 -3.67732 18972 ft 307 kts 154°
2026-05-06 00:39 55.06103 -3.65950 18971 ft 307 kts 154°
2026-05-06 00:40 55.04834 -3.64745 18966 ft 307 kts 154°
2026-05-06 00:40 55.02956 -3.62965 18972 ft 307 kts 154°
2026-05-06 00:40 55.01077 -3.61188 18966 ft 308 kts 154°
2026-05-06 00:40 54.99227 -3.59438 18967 ft 306 kts 154°
2026-05-06 00:41 54.97356 -3.57671 18968 ft 306 kts 154°
2026-05-06 00:41 54.95478 -3.55899 18968 ft 307 kts 154°
2026-05-06 00:41 54.93602 -3.54130 18963 ft 307 kts 154°
2026-05-06 00:41 54.91726 -3.52363 18958 ft 307 kts 154°
2026-05-06 00:42 54.89848 -3.50596 18969 ft 307 kts 154°
2026-05-06 00:42 54.87972 -3.48828 18962 ft 307 kts 154°
2026-05-06 00:42 54.86095 -3.47059 18963 ft 307 kts 154°
2026-05-06 00:42 54.84216 -3.45288 18958 ft 307 kts 154°
2026-05-06 00:43 54.82343 -3.43504 18965 ft 307 kts 154°
2026-05-06 00:43 54.80468 -3.41746 18964 ft 307 kts 155°
2026-05-06 00:43 54.78588 -3.39987 18954 ft 307 kts 154°
2026-05-06 00:43 54.76709 -3.38235 18965 ft 307 kts 154°
2026-05-06 00:44 54.74827 -3.36481 18953 ft 307 kts 154°
2026-05-06 00:44 54.72949 -3.34726 18965 ft 307 kts 154°
2026-05-06 00:44 54.71054 -3.33031 18961 ft 306 kts 158°
2026-05-06 00:44 54.69105 -3.31582 18951 ft 305 kts 161°
2026-05-06 00:45 54.67142 -3.30222 18962 ft 304 kts 161°
2026-05-06 00:45 54.65178 -3.28841 18960 ft 305 kts 160°
2026-05-06 00:45 54.63229 -3.27396 18972 ft 305 kts 159°
2026-05-06 00:45 54.61296 -3.25943 19038 ft 303 kts 159°
2026-05-06 00:46 54.59364 -3.24489 19069 ft 303 kts 159°
2026-05-06 00:46 54.57454 -3.23051 19071 ft 303 kts 159°
2026-05-06 00:46 54.55499 -3.21557 19077 ft 304 kts 159°
2026-05-06 00:46 54.53570 -3.20067 19078 ft 304 kts 159°
2026-05-06 00:47 54.51664 -3.18626 19080 ft 304 kts 160°
2026-05-06 00:47 54.49723 -3.17179 19081 ft 304 kts 159°
2026-05-06 00:47 54.47784 -3.15736 19083 ft 304 kts 160°
2026-05-06 00:47 54.45843 -3.14298 19080 ft 304 kts 160°
2026-05-06 00:48 54.43901 -3.12858 19078 ft 303 kts 160°
2026-05-06 00:48 54.41962 -3.11421 19080 ft 303 kts 160°
2026-05-06 00:48 54.40028 -3.09987 19085 ft 303 kts 160°
2026-05-06 00:48 54.38089 -3.08551 19087 ft 303 kts 160°
2026-05-06 00:49 54.36154 -3.07122 19080 ft 303 kts 160°
2026-05-06 00:49 54.34218 -3.05690 19087 ft 303 kts 160°
2026-05-06 00:49 54.32281 -3.04258 19080 ft 303 kts 160°
2026-05-06 00:49 54.30344 -3.02831 19075 ft 303 kts 159°
2026-05-06 00:50 54.28408 -3.01405 19079 ft 303 kts 160°
2026-05-06 00:50 54.26472 -2.99979 19077 ft 303 kts 159°
2026-05-06 00:50 54.24538 -2.98555 19081 ft 303 kts 160°
2026-05-06 00:50 54.22604 -2.97127 19074 ft 303 kts 160°
2026-05-06 00:51 54.20669 -2.95720 19073 ft 303 kts 160°
2026-05-06 00:51 54.18734 -2.94301 19075 ft 302 kts 159°
2026-05-06 00:51 54.16800 -2.92887 19077 ft 302 kts 160°
2026-05-06 00:51 54.14865 -2.91467 19073 ft 302 kts 160°
2026-05-06 00:52 54.12933 -2.90060 19074 ft 302 kts 160°
2026-05-06 00:52 54.11001 -2.88652 19075 ft 302 kts 160°
2026-05-06 00:52 54.09068 -2.87239 19073 ft 302 kts 160°
2026-05-06 00:52 54.07139 -2.85833 19074 ft 302 kts 160°
2026-05-06 00:53 54.05213 -2.84435 19074 ft 301 kts 160°
2026-05-06 00:53 54.03283 -2.83032 19070 ft 302 kts 160°
2026-05-06 00:53 54.01355 -2.81623 19072 ft 302 kts 160°
2026-05-06 00:53 53.99427 -2.80212 19071 ft 301 kts 160°
2026-05-06 00:54 53.97493 -2.78824 19083 ft 301 kts 160°
2026-05-06 00:54 53.95565 -2.77434 19068 ft 302 kts 160°
2026-05-06 00:54 53.93633 -2.76038 19069 ft 302 kts 160°
2026-05-06 00:54 53.91700 -2.74637 19070 ft 302 kts 160°
2026-05-06 00:55 53.89767 -2.73240 19069 ft 302 kts 160°
2026-05-06 00:55 53.87830 -2.71846 19067 ft 302 kts 160°
2026-05-06 00:55 53.85917 -2.70467 19075 ft 303 kts 160°
2026-05-06 00:55 53.83954 -2.69054 19067 ft 302 kts 160°
2026-05-06 00:56 53.82021 -2.67666 19063 ft 302 kts 160°
2026-05-06 00:56 53.80084 -2.66274 19075 ft 302 kts 160°
2026-05-06 00:56 53.78149 -2.64883 19061 ft 302 kts 160°
2026-05-06 00:56 53.76216 -2.63496 19066 ft 302 kts 160°
2026-05-06 00:57 53.74308 -2.62135 19072 ft 302 kts 160°
2026-05-06 00:57 53.72373 -2.60752 19067 ft 302 kts 160°
2026-05-06 00:57 53.70440 -2.59368 19067 ft 302 kts 160°
2026-05-06 00:57 53.68509 -2.57991 19070 ft 302 kts 160°
2026-05-06 00:58 53.66549 -2.56593 19069 ft 302 kts 160°
2026-05-06 00:58 53.64637 -2.55229 19070 ft 302 kts 160°
2026-05-06 00:58 53.62678 -2.53836 19067 ft 302 kts 160°
2026-05-06 00:58 53.60769 -2.52480 19063 ft 302 kts 160°
2026-05-06 00:59 53.58808 -2.51087 19061 ft 302 kts 160°
2026-05-06 00:59 53.56874 -2.49711 19070 ft 302 kts 160°
2026-05-06 00:59 53.54967 -2.48362 19068 ft 301 kts 160°
2026-05-06 00:59 53.53035 -2.46992 19075 ft 301 kts 160°
2026-05-06 01:00 53.51104 -2.45627 19066 ft 301 kts 160°
2026-05-06 01:00 53.49172 -2.44261 19065 ft 301 kts 160°
2026-05-06 01:00 53.47243 -2.42894 19060 ft 301 kts 160°
2026-05-06 01:00 53.45291 -2.41519 19076 ft 300 kts 160°
2026-05-06 01:01 53.43387 -2.40182 19074 ft 300 kts 160°
2026-05-06 01:01 53.41459 -2.38824 19071 ft 300 kts 160°
2026-05-06 01:01 53.39533 -2.37467 19075 ft 300 kts 160°
2026-05-06 01:01 53.37607 -2.36115 19077 ft 300 kts 160°
2026-05-06 01:02 53.35682 -2.34762 19080 ft 300 kts 160°
2026-05-06 01:02 53.33756 -2.33411 19071 ft 300 kts 160°
2026-05-06 01:02 53.31828 -2.32062 19074 ft 300 kts 160°
2026-05-06 01:02 53.29907 -2.30715 19076 ft 300 kts 160°
2026-05-06 01:03 53.27982 -2.29371 19068 ft 300 kts 160°
2026-05-06 01:03 53.26056 -2.28025 19068 ft 300 kts 160°
2026-05-06 01:03 53.24136 -2.26681 19075 ft 299 kts 160°
2026-05-06 01:03 53.22211 -2.25347 19070 ft 299 kts 160°
2026-05-06 01:04 53.20287 -2.24007 19069 ft 300 kts 160°
2026-05-06 01:04 53.18364 -2.22666 19062 ft 299 kts 160°
2026-05-06 01:04 53.16443 -2.21331 19069 ft 300 kts 160°
2026-05-06 01:04 53.14516 -2.19991 19061 ft 300 kts 160°
2026-05-06 01:05 53.12595 -2.18661 19062 ft 299 kts 160°
2026-05-06 01:05 53.10488 -2.17201 19061 ft 299 kts 160°
2026-05-06 01:05 53.08570 -2.15870 19052 ft 299 kts 160°
2026-05-06 01:05 53.06642 -2.14539 19058 ft 299 kts 160°
2026-05-06 01:06 53.04724 -2.13211 19045 ft 299 kts 160°
2026-05-06 01:06 53.02800 -2.11882 19049 ft 300 kts 160°
2026-05-06 01:06 53.00876 -2.10555 19050 ft 300 kts 160°
2026-05-06 01:06 52.98948 -2.09230 19038 ft 300 kts 160°
2026-05-06 01:07 52.97021 -2.07903 19039 ft 299 kts 160°
2026-05-06 01:07 52.95102 -2.06582 19038 ft 299 kts 160°
2026-05-06 01:07 52.93181 -2.05265 19041 ft 299 kts 160°
2026-05-06 01:07 52.91260 -2.03947 19039 ft 299 kts 160°
2026-05-06 01:08 52.89339 -2.02626 19042 ft 299 kts 160°
2026-05-06 01:08 52.87417 -2.01314 19037 ft 299 kts 160°
2026-05-06 01:08 52.85497 -2.00000 19041 ft 299 kts 160°
2026-05-06 01:08 52.83575 -1.98684 19034 ft 299 kts 160°
2026-05-06 01:09 52.81656 -1.97372 19034 ft 299 kts 160°
2026-05-06 01:09 52.79736 -1.96061 19035 ft 299 kts 160°
2026-05-06 01:09 52.77820 -1.94757 19032 ft 298 kts 160°
2026-05-06 01:09 52.75896 -1.93445 19033 ft 298 kts 160°
2026-05-06 01:10 52.73977 -1.92137 19034 ft 298 kts 160°
2026-05-06 01:10 52.72054 -1.90831 19033 ft 298 kts 160°
2026-05-06 01:10 52.70136 -1.89528 19029 ft 298 kts 160°
2026-05-06 01:10 52.68219 -1.88231 19038 ft 298 kts 160°
2026-05-06 01:11 52.66298 -1.86930 19038 ft 298 kts 160°
2026-05-06 01:11 52.64381 -1.85630 19037 ft 298 kts 160°
2026-05-06 01:11 52.62463 -1.84333 19039 ft 298 kts 160°
2026-05-06 01:11 52.60547 -1.83038 19042 ft 298 kts 160°
2026-05-06 01:12 52.58631 -1.81743 19042 ft 298 kts 160°
2026-05-06 01:12 52.56713 -1.80447 19048 ft 298 kts 160°
2026-05-06 01:12 52.55442 -1.79593 19047 ft 298 kts 160°
2026-05-06 01:12 52.52875 -1.77864 19048 ft 298 kts 160°
2026-05-06 01:13 52.51606 -1.77008 19047 ft 298 kts 160°
2026-05-06 01:13 52.49684 -1.75717 19048 ft 298 kts 160°
2026-05-06 01:13 52.47770 -1.74431 19046 ft 298 kts 160°
2026-05-06 01:13 52.45853 -1.73144 19050 ft 298 kts 160°
2026-05-06 01:14 52.42013 -1.70573 19047 ft 298 kts 160°
2026-05-06 01:14 52.40096 -1.69289 19049 ft 298 kts 160°
2026-05-06 01:14 52.38181 -1.68010 19049 ft 297 kts 160°
2026-05-06 01:15 52.36425 -1.66269 19047 ft 299 kts 137°
2026-05-06 01:15 52.35193 -1.63526 19045 ft 301 kts 121°
2026-05-06 01:15 52.34373 -1.60362 19040 ft 303 kts 108°
2026-05-06 01:15 52.33820 -1.57040 19039 ft 303 kts 104°
2026-05-06 01:16 52.33325 -1.53684 18998 ft 304 kts 104°
2026-05-06 01:16 52.32796 -1.50341 18997 ft 304 kts 106°
2026-05-06 01:16 52.32195 -1.47021 18996 ft 305 kts 108°
2026-05-06 01:16 52.31546 -1.43662 18617 ft 318 kts 108°
2026-05-06 01:17 52.30869 -1.40176 18121 ft 322 kts 108°
2026-05-06 01:17 52.30194 -1.36685 17574 ft 322 kts 108°
2026-05-06 01:17 52.29452 -1.33270 17038 ft 316 kts 118°
2026-05-06 01:17 52.28211 -1.30338 16514 ft 314 kts 131°
2026-05-06 01:18 52.26754 -1.27690 15998 ft 313 kts 134°
2026-05-06 01:18 52.25273 -1.25085 15491 ft 313 kts 133°
2026-05-06 01:18 52.23855 -1.22444 14996 ft 314 kts 131°
2026-05-06 01:18 52.22456 -1.19658 14501 ft 312 kts 129°
2026-05-06 01:19 52.21101 -1.16918 14020 ft 309 kts 129°
2026-05-06 01:19 52.19752 -1.14212 13504 ft 306 kts 129°
2026-05-06 01:19 52.18388 -1.11557 12970 ft 304 kts 130°
2026-05-06 01:19 52.17029 -1.08929 12443 ft 303 kts 130°
2026-05-06 01:20 52.15674 -1.06310 11926 ft 301 kts 130°
2026-05-06 01:20 52.14334 -1.03714 11413 ft 298 kts 129°
2026-05-06 01:20 52.13376 -1.00815 10914 ft 289 kts 104°
2026-05-06 01:20 52.12993 -0.97619 10421 ft 287 kts 95°
2026-05-06 01:21 52.12900 -0.94383 9942 ft 286 kts 87°
2026-05-06 01:21 52.12976 -0.91165 9440 ft 283 kts 84°
2026-05-06 01:21 52.13078 -0.88057 9193 ft 274 kts 85°
2026-05-06 01:21 52.13146 -0.85029 9089 ft 262 kts 86°
2026-05-06 01:22 52.12913 -0.82194 9036 ft 252 kts 111°
2026-05-06 01:22 52.11823 -0.80045 9017 ft 247 kts 146°
2026-05-06 01:22 52.10265 -0.79040 9005 ft 237 kts 163°
2026-05-06 01:22 52.08706 -0.78260 8999 ft 233 kts 162°
2026-05-06 01:23 52.07188 -0.77410 8994 ft 229 kts 158°
2026-05-06 01:23 52.05754 -0.76330 8996 ft 226 kts 151°
2026-05-06 01:23 52.04421 -0.74996 8997 ft 225 kts 144°
2026-05-06 01:23 52.03175 -0.73482 8993 ft 223 kts 141°
2026-05-06 01:24 52.01971 -0.71904 8997 ft 222 kts 140°
2026-05-06 01:24 52.00776 -0.70326 8994 ft 221 kts 140°
2026-05-06 01:24 51.99575 -0.68754 8840 ft 227 kts 141°
2026-05-06 01:24 51.98273 -0.67098 8327 ft 247 kts 141°
2026-05-06 01:25 51.96874 -0.65349 7814 ft 260 kts 142°
2026-05-06 01:25 51.95416 -0.63526 7306 ft 269 kts 142°
2026-05-06 01:25 51.93916 -0.61650 6807 ft 274 kts 142°
2026-05-06 01:25 51.92395 -0.59749 6308 ft 278 kts 142°
2026-05-06 01:26 51.90858 -0.57837 5791 ft 279 kts 142°
2026-05-06 01:26 51.89338 -0.55946 5287 ft 272 kts 141°
2026-05-06 01:26 51.87854 -0.54100 4787 ft 266 kts 141°
2026-05-06 01:26 51.86402 -0.52296 4289 ft 261 kts 141°
2026-05-06 01:27 51.84973 -0.50520 3781 ft 257 kts 140°
2026-05-06 01:27 51.83567 -0.48776 3305 ft 253 kts 140°
2026-05-06 01:27 51.82183 -0.47057 2812 ft 249 kts 139°
2026-05-06 01:27 51.80825 -0.45363 2330 ft 245 kts 139°
2026-05-06 01:28 51.79490 -0.43709 2079 ft 234 kts 139°
2026-05-06 01:28 51.78220 -0.42148 2034 ft 236 kts 139°
2026-05-06 01:28 51.76858 -0.40464 2049 ft 252 kts 139°
2026-05-06 01:28 51.75478 -0.38772 2039 ft 247 kts 139°
2026-05-06 01:29 51.74115 -0.37105 2030 ft 249 kts 139°
2026-05-06 01:29 51.72708 -0.35366 2029 ft 255 kts 139°
2026-05-06 01:29 51.71337 -0.33674 2012 ft 244 kts 139°
2026-05-06 01:29 51.70009 -0.32036 2018 ft 237 kts 139°
2026-05-06 01:30 51.68710 -0.30437 2017 ft 235 kts 139°
2026-05-06 01:30 51.67389 -0.28807 2015 ft 243 kts 139°
2026-05-06 01:30 51.66028 -0.27130 2025 ft 249 kts 139°
2026-05-06 01:30 51.64647 -0.25432 2025 ft 252 kts 140°
2026-05-06 01:31 51.63261 -0.23731 2022 ft 246 kts 139°
2026-05-06 01:31 51.61924 -0.22095 2019 ft 236 kts 139°
2026-05-06 01:31 51.60635 -0.20532 2010 ft 229 kts 139°
2026-05-06 01:31 51.59378 -0.19014 2011 ft 223 kts 139°
2026-05-06 01:32 51.58152 -0.17526 2010 ft 218 kts 139°
2026-05-06 01:32 51.56954 -0.16058 1992 ft 215 kts 139°
2026-05-06 01:32 51.55777 -0.14618 1981 ft 210 kts 139°
2026-05-06 01:32 51.54637 -0.13228 1984 ft 207 kts 139°
2026-05-06 01:33 51.53484 -0.11821 1984 ft 204 kts 139°
2026-05-06 01:33 51.52385 -0.10479 1989 ft 195 kts 139°
2026-05-06 01:33 51.51374 -0.09144 2000 ft 179 kts 124°
2026-05-06 01:33 51.51000 -0.07382 1995 ft 163 kts 93°
2026-05-06 01:34 51.50858 -0.05635 2001 ft 145 kts 91°
2026-05-06 01:34 51.50809 -0.04165 1992 ft 121 kts 86°
2026-05-06 01:34 51.50792 -0.02813 1734 ft 125 kts 86°
2026-05-06 01:34 51.50764 -0.01392 1417 ft 130 kts 88°
2026-05-06 01:35 51.50705 0.00077 1060 ft 134 kts 88°
2026-05-06 01:35 51.50638 0.01574 702 ft 134 kts 88°
2026-05-06 01:35 51.50596 0.03013 373 ft 125 kts 89°
2026-05-06 01:35 51.50576 0.04372 98 ft 118 kts 91°
2026-05-06 01:36 51.50530 0.05572 21 ft 88 kts 95°
2026-05-06 01:36 51.50509 0.06076 21 ft 32 kts 91°
2026-05-06 01:36 51.50497 0.06274 25 ft 5 kts 114°
2026-05-06 01:36 51.50475 0.06331 28 ft 1 kts 144°
2026-05-06 01:37 51.50460 0.06342 26 ft 4 kts 164°
2026-05-06 01:37 51.50422 0.06313 28 ft 8 kts 234°
2026-05-06 01:37 51.50413 0.06233 24 ft 7 kts 271°
2026-05-06 01:38 51.50425 0.06054 21 ft 26 kts 270°
2026-05-06 01:38 51.50425 0.05698 22 ft 37 kts 275°
2026-05-06 01:38 51.50441 0.05328 24 ft 16 kts 264°
2026-05-06 01:38 51.50403 0.05273 24 ft 9 kts 182°
2026-05-06 01:39 51.50397 0.05273 23 ft 0 kts 180°